Weather Roundup
Issued by NWS Chicago, IL

Home | Current Version | Previous Version | Text Only | Print | Product List | Glossary On
Versions: 1 2 3 4 5 6 7 8 9 10 11 12 13 14 15 16 17 18 19 20 21 22 23 24 25 26 27 28 29 30 31 32 33 34 35 36 37 38 39 40 41 42 43 44 45 46 47 48 49 50
000
NZUS59 KLOT 241312
HRRLOT

CHICAGO AREA WEATHER ROUNDUP
NATIONAL WEATHER SERVICE CHICAGO/ROMEOVILLE IL
700 AM CST FRI FEB 24 2017

NOTE: "FAIR" INDICATES FEW OR NO CLOUDS BELOW 12,000 FEET WITH NO
SIGNIFICANT WEATHER AND/OR OBSTRUCTIONS TO VISIBILITY.

* THESE STATIONS ARE NOT UNDER NWS QUALITY CONTROL. THEY ALSO MAY NOT
  REPORT WEATHER SUCH AS PRECIPITATION OR FOG.

ILZ005-006-012>014-019>023-241400-
NORTHEAST ILLINOIS

CITY           SKY/WX    TMP DP  RH WIND       PRES   REMARKS
OHARE          CLOUDY    40  38  93 N12       29.47F
MIDWAY         CLOUDY    41  39  93 NW10G21   29.49R FOG
AURORA         CLOUDY    41  39  93 NE15      29.46F
LANSING*       CLOUDY    46  46 100 S6        29.43F
JOLIET*        CLOUDY    46  45  99 N6        29.46R FOG
WAUKEGAN       CLOUDY    36  35  96 NE22G31   29.46F
DUPAGE AIRPORT CLOUDY    39  37  92 NE10      29.46F
WHEELING       CLOUDY    38  36  92 N13G22    29.48F
KANKAKEE*      MOCLDY    58  55  92 S18G24    29.45R
MORRIS*        CLOUDY    44  43  96 N8        29.43F FOG
LEWIS AIRPORT* CLOUDY    42  42 100 NE12      29.46R FOG
NORTHERLY ISL    N/A     42  40  92 N6          N/A
$$

WIZ051-052-058>065-066-070>072-241400-
SOUTHEAST WISCONSIN

CITY           SKY/WX    TMP DP  RH WIND       PRES   REMARKS
MILWAUKEE      CLOUDY    36  33  89 N17G26    29.55F
KENOSHA*       CLOUDY    36  34  92 NE17G25   29.52F
RACINE*        CLOUDY    37  34  89 NE23G33   29.54F
WAUKESHA       CLOUDY    34  30  86 NE21G35   29.58F WCI  22
WEST BEND      CLOUDY    32  32 100 NE16      29.58S WCI  21
$$

INZ001>003-010>013-019-020-241400-
NORTHWEST INDIANA

CITY           SKY/WX    TMP DP  RH WIND       PRES   REMARKS
GARY*          PTCLDY    45  45 100 VRB6      29.40F FOG
MICHIGAN CITY* NOT AVBL
RENSSELAER*    NOT AVBL
VALPARAISO     CLOUDY    59  55  87 S14G22    29.44F
$$

LMZ740>746-241400-
SOUTHERN LAKE MICHIGAN

STATION/POSITION TIME  SKY/WX   TEMP WIND        PRES    VSBY
                                AIR  DIR/SP/G
                 (UTC)          (F)  (DEG/KT/KT) (MB)    (MI)
HARRISON CRIB    1240            38  330/ 23/ 26   N/A
BURNHAM HARBOR   1300            42  320/  5/ 11   N/A
CALUMET HARBOR   1248            39  320/ 10/ 16  996.8F
BURNS HARBOR     1240            58  190/  5/ 21  996.6F
MICHIGAN CITY    1240            58  170/ 16/ 20   N/A
$$

ABBREVIATIONS USED IN REMARKS
   TC - TEMPERATURE IN CELSIUS
  WCI - WIND CHILL INDEX
   HX - HEAT INDEX
  VSB - VISIBILITY
$$




USA.gov is the U.S. government's official web portal to all federal, state and local government web resources and services.